Simultaneous Nadir Overpasses (SNOs) Predictions

Prediction of SNOs over PacNW region [( 10.00, 139.50) to ( 22.70, 165.60)] between AQUA and NPP Satellites:

Table of predicted SNOs over PacNW region for the next 30.0 days since TLE Epoch: 4/23/2022
Index Date (AQUA) Time (AQUA) AQUA Lat,Lon Date (NPP) Time (NPP) NPP Lat,Lon Distance(km) Time Diff (sec)
1 05/01/2022 02:37:21 22.66, 161.65 05/01/2022 02:36:21 22.03, 158.67 314.42 60
2 05/03/2022 16:16:06 10.00, 141.88 05/03/2022 16:12:36 7.30, 139.28 415.46 210
3 05/09/2022 03:24:34 18.39, 150.58 05/09/2022 03:25:45 17.65, 147.08 379.69 71
4 05/11/2022 15:25:35 10.03, 154.55 05/11/2022 15:22:06 6.04, 151.70 543.80 209
5 05/17/2022 02:34:17 19.41, 163.03 05/17/2022 02:35:11 18.67, 159.55 374.59 54
6 05/19/2022 16:12:48 13.84, 143.35 05/19/2022 16:10:22 14.35, 140.95 265.06 146
